Location: Unspecified
(0.0000°N, 0.0000°E)
Time: 11:36:18
(UTC+00:00)

PCSat - Pass Details

Date: 17 December 2017
Orbit: 786 x 794 km, 67.1° (Epoch: 17 January)

Event Time Altitude Azimuth Distance (km) Brightness Sun altitude
Exits shadow 04:24:37 14° 359° (N) 2,071 11.5 -20.9°
Maximum altitude 04:29:03 49° 71° (ENE) 1,010 10.4 -19.9°
Drops below altitude 10° 04:34:15 10° 145° (SE) 2,353 12.9 -18.7°
Sets 04:36:43 0° 150° (SSE) 3,283 13.7 -18.2°
